1508533200.75,58927,16.63,74008.0,0.09,-32.45,-34.35,0,*74
1508533201.96,58928,16.63,74006.3,0.09,-32.51,-34.31,0,*7A
1508533203.17,58929,16.63,74010.5,0.07,-32.51,-34.47,0,*74
1508533204.36,58930,16.63,74008.8,0.09,-32.51,-34.47,0,*72
1508533205.59,58931,16.63,74006.0,0.09,-32.45,-34.31,0,*77
1508533206.85,58932,16.63,74010.8,0.07,-32.45,-34.35,0,*7E
1508533208.09,58933,16.63,74008.3,0.07,-32.51,-34.35,0,*7A
1508533209.32,58934,16.63,74008.8,0.07,-32.51,-34.35,0,*7D
1508533210.51,58935,16.63,74006.5,0.09,-32.51,-34.47,0,*77
1508533211.73,58936,16.63,74004.0,0.07,-32.51,-34.47,0,*7A
1508533212.97,58937,16.63,74006.0,0.07,-32.51,-34.35,0,*7E
1508533214.2,58938,16.56,74006.5,0.09,-32.19,-34.19,0,*7D
1508533215.44,58939,16.56,74004.5,0.07,-32.13,-34.01,0,*71
1508533216.71,58940,16.63,74004.5,0.07,-32.19,-34.01,0,*75
1508533217.94,58941,16.63,74004.5,0.07,-32.35,-34.31,0,*79
1508533219.17,58942,16.63,74006.3,0.07,-32.51,-34.35,0,*7C
1508533220.43,58943,16.63,74006.8,0.07,-32.29,-34.19,0,*7C
1508533221.66,58944,16.63,74004.8,0.07,-32.51,-34.35,0,*7A
1508533222.91,58945,16.63,74006.8,0.07,-32.63,-34.47,0,*7F
1508533224.13,58946,16.63,74006.8,0.07,-32.51,-34.47,0,*7D
1508533225.33,58947,16.56,74002.8,0.05,-32.57,-34.35,0,*7D
1508533226.51,58948,16.56,74002.3,0.05,-32.39,-34.25,0,*7B
1508533227.69,58949,16.56,74004.5,0.05,-32.35,-34.07,0,*76
1508533228.9,58950,16.56,74000.8,0.05,-32.23,-34.01,0,*7F
1508533230.07,58951,16.63,74004.5,0.05,-32.35,-34.25,0,*7F
1508533231.28,58952,16.63,74006.8,0.05,-32.35,-34.01,0,*7A
1508533232.46,58953,16.56,74002.5,0.01,-32.35,-34.07,0,*79
1508533233.67,58954,16.63,74004.5,0.05,-32.35,-34.01,0,*7C
1508533234.88,58955,16.63,74004.8,0.05,-32.07,-33.83,0,*71
1508533236.15,58956,16.63,74006.8,0.07,-31.95,-33.77,0,*73
1508533237.42,58957,16.56,74004.0,0.07,-31.95,-33.73,0,*76
1508533238.66,58958,16.63,74008.3,0.07,-31.29,-33.09,0,*73
1508533239.91,58959,16.63,74004.3,0.07,-31.45,-33.09,0,*78
1508533241.12,58960,16.63,74004.3,0.09,-31.67,-33.43,0,*72
1508533242.31,58961,16.63,74006.0,0.09,-31.79,-33.55,0,*7B
1508533243.51,58962,16.56,74004.0,0.09,-31.39,-33.21,0,*7F
1508533244.78,58963,16.63,74006.5,0.07,-31.85,-33.73,0,*70
1508533246.02,58964,16.63,74004.0,0.09,-31.95,-33.73,0,*78
1508533247.27,58965,16.63,74006.0,0.11,-31.95,-33.67,0,*45
1508533248.52,58966,16.63,74004.5,0.11,-31.95,-33.67,0,*46
1508533249.79,58967,16.56,73996.0,0.11,-31.95,-33.73,0,*42
1508533251.03,58968,16.63,74000.0,0.11,-32.07,-33.83,0,*4A
1508533252.24,58969,16.63,73998.8,0.11,-32.13,-33.83,0,*4E
1508533253.5,58970,16.63,73998.8,0.11,-32.29,-33.89,0,*45
1508533254.72,58971,16.63,73994.5,0.11,-32.39,-34.13,0,*41
1508533255.93,58972,16.63,73998.0,0.11,-32.39,-34.13,0,*42
1508533257.16,58973,16.56,73992.3,0.11,-32.45,-34.25,0,*4D
1508533258.37,58974,16.63,73992.8,0.11,-32.39,-34.13,0,*44
1508533259.61,58975,16.56,73994.5,0.11,-32.45,-34.13,0,*4E
1508533260.85,58976,16.63,73994.3,0.11,-32.29,-33.95,0,*4E
1508533262.02,58977,16.63,73994.8,0.09,-32.35,-33.95,0,*7B
1508533263.26,58978,16.56,73988.0,0.09,-32.19,-33.77,0,*76
1508533264.47,58979,16.63,73992.3,0.09,-32.13,-33.77,0,*7D
1508533265.74,58980,16.56,73990.5,0.11,-32.07,-33.73,0,*43
1508533266.95,58981,16.63,73992.5,0.11,-32.23,-33.83,0,*4B
1508533268.16,58982,16.56,73988.8,0.11,-32.23,-33.83,0,*48
1508533269.43,58983,16.56,73990.8,0.11,-32.07,-33.73,0,*40
1508533270.67,58984,16.63,73994.3,0.11,-32.07,-33.67,0,*42
1508533271.89,58985,16.56,73992.0,0.11,-31.79,-33.55,0,*48
1508533273.13,58986,16.56,73994.5,0.11,-31.91,-33.67,0,*4C
1508533274.41,58987,16.63,73992.8,0.13,-31.73,-33.49,0,*4F
1508533275.63,58988,16.56,73992.8,0.11,-31.79,-33.37,0,*41
1508533276.87,58989,16.63,73992.5,0.11,-31.95,-33.55,0,*46
1508533278.14,58990,16.56,73994.0,0.13,-32.29,-33.89,0,*49
1508533279.41,58991,16.63,73996.3,0.13,-32.07,-33.73,0,*41
1508533280.66,58992,16.63,73998.5,0.13,-31.79,-33.31,0,*4E
1508533281.91,58993,16.63,73998.8,0.13,-31.51,-33.15,0,*43
1508533283.15,58994,16.63,74000.5,0.15,-31.91,-33.61,0,*4D
1508533284.37,58995,16.63,74000.8,0.13,-32.13,-33.83,0,*4F
1508533285.61,58996,16.63,74002.8,0.13,-32.23,-33.73,0,*40
1508533286.83,58997,16.63,74002.5,0.15,-32.23,-33.77,0,*43
1508533288.03,58998,16.63,74006.8,0.15,-32.01,-33.67,0,*4D
1508533289.26,58999,16.56,74002.8,0.15,-32.19,-33.67,0,*45
1508533290.48,59000,16.63,74000.5,0.15,-32.19,-33.67,0,*4D
1508533291.74,59001,16.63,74002.0,0.13,-32.07,-33.67,0,*45
1508533292.96,59002,16.56,74000.3,0.15,-32.01,-33.61,0,*40
1508533294.22,59003,16.56,74000.5,0.13,-32.29,-33.89,0,*4B
1508533295.46,59004,16.63,74004.8,0.13,-32.45,-34.25,0,*47
1508533296.68,59005,16.56,74000.3,0.13,-32.39,-33.83,0,*46
1508533297.93,59006,16.63,74004.5,0.13,-32.39,-33.89,0,*4F
1508533299.17,59007,16.63,74004.5,0.13,-32.23,-33.73,0,*40
1508533300.39,59008,16.63,74006.3,0.13,-32.13,-33.83,0,*43
1508533301.66,59009,16.56,74006.5,0.17,-31.91,-33.49,0,*49
1508533302.9,59010,16.56,74002.3,0.15,-31.85,-33.61,0,*4C
1508533304.11,59011,16.56,74006.5,0.15,-32.01,-33.67,0,*44
1508533305.3,59012,16.56,74004.0,0.15,-32.39,-34.07,0,*4D
1508533306.52,59013,16.63,74008.3,0.15,-32.39,-33.89,0,*4D
1508533307.71,59014,16.56,74006.3,0.15,-32.35,-33.83,0,*4C
1508533308.93,59015,16.63,74008.8,0.15,-32.39,-33.89,0,*4B
1508533310.14,59016,16.56,74004.0,0.15,-32.35,-33.89,0,*44
1508533311.33,59017,16.56,74004.0,0.15,-32.23,-33.83,0,*48
1508533312.55,59018,16.56,74002.0,0.15,-32.23,-33.77,0,*4C
1508533313.77,59019,16.63,74008.5,0.15,-32.23,-33.77,0,*4D
1508533315.01,59020,16.56,74006.8,0.15,-32.19,-33.77,0,*4E
1508533316.21,59021,16.63,74010.5,0.15,-32.01,-33.67,0,*47
1508533317.46,59022,16.63,74008.3,0.15,-32.19,-33.77,0,*4C
1508533318.68,59023,16.56,74008.0,0.15,-32.51,-34.19,0,*4E
1508533319.86,59024,16.56,74008.8,0.15,-32.35,-33.83,0,*4F
1508533321.08,59025,16.63,74010.8,0.15,-32.23,-33.77,0,*42
1508533322.28,59026,16.56,74006.8,0.15,-32.39,-33.83,0,*41
1508533323.51,59027,16.63,74010.5,0.17,-32.51,-34.19,0,*48
1508533324.7,59028,16.56,74004.0,0.15,-32.69,-34.25,0,*41
1508533325.95,59029,16.56,74008.5,0.13,-32.85,-34.41,0,*46
1508533327.2,59030,16.63,74010.0,0.13,-32.85,-34.47,0,*48
1508533328.44,59031,16.56,74004.8,0.13,-32.75,-34.41,0,*40
1508533329.65,59032,16.56,74008.8,0.11,-32.57,-33.95,0,*4F
1508533330.89,59033,16.56,74006.8,0.11,-32.23,-33.73,0,*45
1508533332.17,59034,16.56,74008.3,0.13,-32.07,-33.73,0,*46
1508533333.43,59035,16.56,74006.0,0.13,-32.29,-33.89,0,*4E
1508533334.65,59036,16.56,74004.3,0.11,-32.57,-34.13,0,*42
1508533335.89,59037,16.56,74004.8,0.13,-32.63,-34.25,0,*43
1508533337.16,59038,16.63,74006.8,0.13,-32.79,-34.31,0,*42
1508533338.42,59039,16.56,74002.0,0.11,-32.79,-34.31,0,*41
1508533339.66,59040,16.56,74006.5,0.13,-32.63,-34.25,0,*43
1508533340.91,59041,16.56,74004.0,0.13,-32.79,-34.41,0,*4B
1508533342.17,59042,16.56,74004.3,0.11,-32.85,-34.31,0,*4E
1508533343.38,59043,16.56,74006.0,0.11,-32.39,-33.83,0,*46
1508533344.62,59044,16.56,74004.5,0.11,-32.79,-34.25,0,*4E
1508533345.88,59045,16.56,74004.5,0.11,-32.85,-34.31,0,*49
1508533347.11,59046,16.56,74000.8,0.11,-32.85,-34.41,0,*4D
1508533348.35,59047,16.56,74004.0,0.11,-32.63,-34.13,0,*43
1508533349.59,59048,16.56,74004.5,0.11,-32.63,-34.25,0,*49
1508533350.82,59049,16.56,74002.3,0.09,-32.63,-34.31,0,*74
1508533352.03,59050,16.56,74002.0,0.09,-32.69,-34.19,0,*7C
1508533353.29,59051,16.56,74000.0,0.07,-32.85,-34.35,0,*7F
1508533354.55,59052,16.56,74002.0,0.07,-32.85,-34.35,0,*7C
1508533355.8,59053,16.56,74000.5,0.07,-32.85,-34.47,0,*78
1508533357.03,59054,16.56,74000.5,0.09,-32.85,-34.35,0,*74
1508533358.26,59055,16.56,74002.5,0.09,-32.79,-34.31,0,*72
1508533359.52,59056,16.56,74000.5,0.07,-32.63,-34.19,0,*7E
1508533360.76,59057,16.56,74002.5,0.07,-32.63,-33.95,0,*7C
1508533362.01,59058,16.56,74000.5,0.07,-32.69,-34.01,0,*73
1508533363.25,59059,16.56,73998.0,0.07,-32.69,-34.19,0,*7B
1508533364.49,59060,16.56,74002.8,0.07,-32.63,-33.95,0,*78
1508533365.72,59061,16.56,73998.0,0.07,-32.63,-33.95,0,*79
1508533366.91,59062,16.56,74000.3,0.09,-32.51,-33.95,0,*75
1508533368.15,59063,16.56,74002.3,0.07,-32.51,-33.89,0,*77
1508533369.41,59064,16.56,74002.3,0.07,-32.19,-33.73,0,*79
1508533370.67,59065,16.56,74002.0,0.07,-32.29,-33.73,0,*7B
1508533371.94,59066,16.56,74002.8,0.07,-32.45,-33.89,0,*77
1508533373.2,59067,16.56,74000.8,0.07,-32.45,-33.89,0,*76
1508533374.46,59068,16.56,74000.8,0.07,-32.45,-33.89,0,*79
1508533375.73,59069,16.56,74004.8,0.07,-32.45,-33.77,0,*79
1508533376.97,59070,16.56,74006.0,0.07,-32.63,-33.95,0,*79
1508533378.17,59071,16.56,74002.0,0.05,-32.75,-34.25,0,*71
1508533379.44,59072,16.56,74000.8,0.07,-32.85,-34.31,0,*7A
1508533380.69,59073,16.56,74000.8,0.07,-32.69,-34.01,0,*7A
1508533381.92,59074,16.56,74000.8,0.07,-32.91,-34.35,0,*7D
1508533383.12,59075,16.56,73996.8,0.05,-32.91,-34.35,0,*7E
1508533384.32,59076,16.56,74002.8,0.05,-32.85,-34.25,0,*79
1508533385.51,59077,16.56,74002.8,0.05,-32.91,-34.07,0,*7D
1508533386.72,59078,16.56,74002.5,0.05,-32.75,-34.07,0,*78
1508533387.89,59079,16.56,74002.0,0.05,-32.91,-34.41,0,*71
1508533389.1,59080,16.63,74004.8,0.01,-32.91,-34.31,0,*74
1508533390.31,59081,16.56,74002.0,0.01,-32.75,-34.07,0,*7A
1508533391.49,59082,16.56,73998.8,0.05,-32.39,-33.83,0,*7E
1508533392.68,59083,16.56,74002.5,0.05,-32.23,-33.67,0,*7E
1508533393.86,59084,16.56,74000.8,0.05,-32.23,-33.67,0,*79
1508533395.11,59085,16.56,74000.3,0.01,-32.07,-33.49,0,*76
1508533396.32,59086,16.56,74002.8,0.05,-32.51,-33.77,0,*7F
1508533397.56,59087,16.56,74002.3,0.01,-32.75,-34.01,0,*7A
1508533398.77,59088,16.56,74002.3,0.05,-32.75,-34.07,0,*77
1508533399.95,59089,16.56,74002.0,0.05,-32.91,-34.41,0,*7E
1508533401.15,59090,16.56,74004.0,0.01,-32.97,-34.41,0,*74
1508533402.35,59091,16.56,74002.5,0.05,-32.85,-34.25,0,*70
1508533403.57,59092,16.56,74004.3,0.01,-32.79,-34.07,0,*74
1508533404.76,59093,16.56,74002.0,0.05,-32.69,-33.95,0,*7C
1508533405.97,59094,16.56,73998.0,0.01,-32.75,-34.07,0,*7E
1508533407.18,59095,16.56,74000.8,0.01,-32.57,-33.89,0,*7E
1508533408.37,59096,16.56,74004.0,0.01,-32.57,-33.83,0,*77
1508533409.56,59097,16.56,74000.5,0.01,-32.13,-33.67,0,*7C
1508533410.74,59098,16.56,74002.0,0.01,-31.79,-33.03,0,*7E
1508533411.98,59099,16.56,74002.5,0.05,-31.51,-32.85,0,*7E
1508533413.16,59100,16.56,74000.3,0.01,-31.17,-32.57,0,*76
1508533414.4,59101,16.56,74000.3,0.09,-31.39,-32.63,0,*74
1508533415.59,59102,16.56,74002.5,0.09,-31.29,-32.69,0,*7C
1508533416.83,59103,16.56,74002.5,0.09,-31.85,-33.09,0,*7C
1508533418.04,59104,16.56,74002.5,0.09,-31.85,-33.03,0,*71
1508533419.26,59105,16.56,74006.5,0.09,-31.85,-33.03,0,*70
1508533420.5,59106,16.56,74004.3,0.09,-31.95,-33.27,0,*74
1508533421.74,59107,16.56,74004.8,0.09,-31.57,-32.79,0,*71
1508533422.94,59108,16.56,74000.8,0.09,-31.29,-32.51,0,*7D
1508533424.15,59109,16.56,74004.5,0.09,-31.29,-32.63,0,*7D
1508533425.41,59110,16.63,74000.3,0.11,-31.73,-32.97,0,*48
1508533426.69,59111,16.56,74000.5,0.11,-31.95,-33.31,0,*4C
1508533427.96,59112,16.56,74002.3,0.11,-31.95,-33.31,0,*4F
1508533429.17,59113,16.56,74002.8,0.13,-32.23,-33.55,0,*40
1508533430.41,59114,16.56,74006.8,0.11,-32.13,-33.49,0,*4B
1508533431.64,59115,16.56,74006.5,0.13,-32.23,-33.37,0,*42
1508533432.86,59116,16.63,74008.8,0.13,-32.23,-33.37,0,*41
1508533434.11,59117,16.56,74004.5,0.13,-32.13,-33.31,0,*45
1508533435.34,59118,16.56,74006.5,0.11,-32.23,-33.49,0,*44
1508533436.6,59119,16.56,74004.8,0.13,-32.07,-33.37,0,*48
1508533437.87,59120,16.56,74004.0,0.13,-31.73,-32.97,0,*49
1508533439.07,59121,16.56,74000.0,0.15,-31.67,-32.91,0,*4D
1508533440.32,59122,16.56,74000.0,0.15,-31.95,-33.27,0,*4F
1508533441.57,59123,16.56,74000.0,0.15,-32.07,-33.31,0,*41
1508533442.84,59124,16.56,74000.3,0.17,-32.19,-33.31,0,*4B
1508533444.07,59125,16.56,74000.0,0.15,-32.01,-33.31,0,*41
1508533445.31,59126,16.56,73998.8,0.13,-32.29,-33.55,0,*4C
1508533446.53,59127,16.56,74000.8,0.15,-32.51,-33.61,0,*43
1508533447.74,59128,16.56,73998.5,0.15,-32.39,-33.61,0,*42
1508533448.96,59129,16.56,74000.3,0.15,-32.57,-33.61,0,*4B
1508533450.17,59130,16.56,74000.8,0.15,-32.69,-33.67,0,*48
1508533451.37,59131,16.56,74002.0,0.15,-32.39,-33.67,0,*4C
1508533452.61,59132,16.56,74002.5,0.13,-32.63,-33.95,0,*4B
1508533453.86,59133,16.56,74002.5,0.13,-32.75,-33.83,0,*4A
1508533455.13,59134,16.56,74000.8,0.13,-32.75,-33.89,0,*47
1508533456.38,59135,16.56,74002.3,0.13,-32.57,-33.73,0,*43
1508533457.63,59136,16.56,73998.0,0.13,-32.79,-33.95,0,*44
1508533458.88,59137,16.56,73998.8,0.13,-32.75,-33.83,0,*4E
1508533460.11,59138,16.56,73998.5,0.11,-32.97,-33.95,0,*48
1508533461.35,59139,16.56,74002.5,0.11,-32.85,-33.95,0,*4A
1508533462.59,59140,16.56,74002.0,0.11,-32.85,-33.95,0,*44
1508533463.82,59141,16.56,74000.3,0.11,-32.97,-33.95,0,*46
1508533465.03,59142,16.56,74000.8,0.09,-33.03,-34.19,0,*73
1508533466.24,59143,16.56,74002.0,0.09,-32.91,-34.01,0,*71
1508533467.42,59144,16.56,74000.3,0.09,-32.91,-33.95,0,*7C
1508533468.69,59145,16.56,74002.3,0.07,-32.79,-33.89,0,*78
1508533469.92,59146,16.56,74000.8,0.09,-32.63,-33.77,0,*7F
1508533471.17,59147,16.56,74000.0,0.07,-32.69,-33.77,0,*7A
1508533472.43,59148,16.56,73994.8,0.07,-32.63,-33.73,0,*7B
1508533473.67,59149,16.56,73996.8,0.09,-32.79,-33.89,0,*7A
1508533474.94,59150,16.56,74002.0,0.07,-32.79,-33.89,0,*7C
1508533476.21,59151,16.56,73996.3,0.07,-32.63,-33.77,0,*77
1508533477.41,59152,16.56,73996.3,0.09,-32.35,-33.61,0,*7E
1508533478.67,59153,16.56,73996.8,0.07,-32.29,-33.43,0,*7C
1508533479.94,59154,16.56,74000.3,0.07,-32.45,-33.73,0,*72
1508533481.15,59155,16.56,74002.3,0.09,-32.51,-33.73,0,*78
1508533482.39,59156,16.56,74000.3,0.07,-32.51,-33.61,0,*76
1508533483.62,59157,16.56,74002.5,0.09,-32.45,-33.61,0,*7C
1508533484.83,59158,16.56,74006.8,0.09,-32.51,-33.73,0,*75
1508533486.09,59159,16.56,74002.8,0.07,-32.45,-33.61,0,*7C
1508533487.32,59160,16.56,74002.8,0.07,-32.35,-33.61,0,*71
1508533488.55,59161,16.56,74002.3,0.09,-32.45,-33.61,0,*79
1508533489.79,59162,16.56,74006.0,0.09,-32.29,-33.43,0,*70
1508533491.03,59163,16.56,74002.8,0.07,-32.51,-33.73,0,*73
1508533492.24,59164,16.56,74000.3,0.09,-32.69,-33.73,0,*71
1508533493.45,59165,16.56,74000.8,0.09,-32.51,-33.61,0,*78
1508533494.69,59166,16.56,74004.0,0.09,-32.45,-33.43,0,*7E
1508533495.93,59167,16.56,74006.0,0.07,-32.45,-33.55,0,*76
1508533497.17,59168,16.56,74000.5,0.07,-32.51,-33.73,0,*78
1508533498.44,59169,16.56,74004.3,0.07,-32.63,-33.73,0,*78
1508533499.71,59170,16.56,74002.0,0.07,-32.79,-33.73,0,*7B
1508533500.97,59171,16.56,74004.0,0.07,-32.79,-33.73,0,*7A
1508533502.18,59172,16.56,74004.5,0.09,-32.29,-33.37,0,*72
1508533503.4,59173,16.56,74004.8,0.09,-32.19,-33.37,0,*70
1508533504.64,59174,16.56,74002.5,0.07,-32.51,-33.61,0,*76
1508533505.9,59175,16.56,74002.8,0.07,-32.63,-33.61,0,*76
1508533507.14,59176,16.56,74004.0,0.07,-32.29,-33.37,0,*78
1508533508.38,59177,16.56,74004.5,0.07,-32.51,-33.61,0,*75
1508533509.64,59178,16.56,74004.8,0.07,-32.79,-33.73,0,*73
1508533510.88,59179,16.56,74006.8,0.09,-32.85,-33.73,0,*7F
1508533512.15,59180,16.56,74004.3,0.07,-32.85,-33.89,0,*72
1508533513.39,59181,16.56,74006.5,0.07,-32.91,-33.89,0,*76
1508533514.63,59182,16.56,74004.8,0.07,-33.03,-34.01,0,*78
1508533515.87,59183,16.56,74008.0,0.07,-32.91,-33.89,0,*74
1508533517.08,59184,16.56,74006.5,0.05,-32.85,-33.83,0,*7E
1508533518.32,59185,16.56,74004.8,0.01,-32.75,-33.73,0,*7B
1508533519.53,59186,16.56,74004.0,0.05,-32.35,-33.27,0,*79
1508533520.77,59187,16.56,74002.3,0.05,-32.07,-33.09,0,*75
1508533522.04,59188,16.56,74004.0,0.07,-32.19,-33.27,0,*7B
1508533523.25,59189,16.56,74004.0,0.05,-32.39,-33.61,0,*78
1508533524.46,59190,16.56,74006.3,0.05,-32.39,-33.49,0,*7A
1508533525.67,59191,16.56,74006.8,0.01,-32.23,-33.43,0,*7E
1508533526.89,59192,16.56,74006.3,0.05,-32.23,-33.43,0,*79
1508533528.08,59193,16.56,74004.5,0.01,-32.39,-33.37,0,*74
1508533529.35,59194,16.56,74006.8,0.07,-32.19,-33.27,0,*76
1508533530.62,59195,16.56,74006.0,0.07,-31.95,-33.09,0,*7C
1508533531.84,59196,16.56,74002.8,0.07,-32.01,-33.03,0,*7B
1508533533.05,59197,16.56,73996.8,0.05,-32.19,-33.15,0,*76
1508533534.26,59198,16.56,74002.8,0.05,-32.23,-33.43,0,*73
1508533535.48,59199,16.56,74000.3,0.07,-32.51,-33.55,0,*72
1508533536.67,59200,16.56,74002.3,0.05,-32.57,-33.67,0,*74
1508533537.94,59201,16.56,74004.0,0.07,-32.63,-33.73,0,*75
1508533539.17,59202,16.56,74006.3,0.05,-32.85,-33.77,0,*78
1508533540.42,59203,16.56,74004.8,0.07,-32.69,-33.73,0,*7D
1508533541.66,59204,16.56,74006.5,0.05,-32.85,-33.77,0,*7E
1508533542.87,59205,16.56,74004.8,0.05,-32.85,-33.83,0,*74
1508533544.08,59206,16.56,74008.0,0.05,-32.75,-33.83,0,*78
1508533545.32,59207,16.56,74004.5,0.05,-32.75,-33.77,0,*72
1508533546.54,59208,16.56,74006.0,0.05,-32.75,-33.67,0,*7C
1508533547.75,59209,16.56,74004.8,0.01,-32.75,-33.83,0,*73
1508533548.97,59210,16.56,74004.8,0.05,-32.69,-33.77,0,*79
1508533550.18,59211,16.56,74004.8,0.01,-32.75,-33.83,0,*7A
1508533551.39,59212,16.56,74010.0,0.01,-32.79,-33.83,0,*75
1508533552.6,59213,16.56,74010.5,0.05,-32.91,-33.77,0,*7D
1508533553.83,59214,16.56,74006.0,0.01,-32.97,-33.89,0,*79
1508533555.05,59215,16.56,74004.8,0.01,-32.75,-33.83,0,*7E
1508533556.29,59216,16.56,74010.0,0.01,-32.75,-33.73,0,*72
1508533557.5,59217,16.56,74006.5,0.05,-32.69,-33.77,0,*7E
1508533558.74,59218,16.56,74004.0,0.01,-32.79,-33.73,0,*70
1508533559.98,59219,16.56,74006.8,0.01,-32.75,-33.73,0,*7D
1508533561.19,59220,16.56,74006.0,0.01,-32.79,-33.83,0,*74
1508533562.38,59221,16.56,74008.3,0.01,-33.03,-33.83,0,*79
1508533563.59,59222,16.56,74006.5,-0.01,-32.91,-33.83,0,*5D
1508533564.87,59223,16.56,74010.8,-0.01,-32.79,-33.73,0,*55
1508533566.14,59224,16.56,74008.3,-0.01,-32.79,-33.73,0,*52
1508533567.38,59225,16.56,74002.8,-0.03,-32.45,-33.43,0,*5D
1508533568.63,59226,16.56,74004.0,-0.03,-32.45,-33.49,0,*54
1508533569.87,59227,16.56,74006.8,-0.01,-32.63,-33.55,0,*5E
1508533571.11,59228,16.56,74000.8,-0.03,-32.79,-33.73,0,*5C
1508533572.36,59229,16.56,74006.0,-0.03,-32.79,-33.73,0,*5D
1508533573.61,59230,16.56,74004.0,-0.01,-32.79,-33.67,0,*52
1508533574.86,59231,16.56,74000.5,-0.01,-32.07,-32.91,0,*52
1508533576.08,59232,16.56,74002.8,-0.01,-32.13,-33.03,0,*5E
1508533577.33,59233,16.56,74002.3,-0.01,-31.79,-32.63,0,*57
1508533578.51,59234,16.56,74004.8,0.01,-31.33,-32.13,0,*74
1508533579.75,59235,16.56,74000.3,0.01,-31.39,-32.45,0,*7C
1508533580.96,59236,16.56,73998.5,0.05,-31.91,-32.91,0,*70
1508533582.23,59237,16.56,73996.0,0.07,-31.95,-32.85,0,*72
1508533583.47,59238,16.56,73996.0,0.01,-32.45,-33.49,0,*74
1508533584.71,59239,16.56,73998.5,0.05,-32.45,-33.27,0,*79
1508533585.95,59240,16.56,73998.8,0.05,-32.07,-32.97,0,*7B
1508533587.15,59241,16.56,73996.5,0.05,-32.35,-33.31,0,*76
1508533588.39,59242,16.56,73998.0,0.05,-32.45,-33.31,0,*72
1508533589.57,59243,16.56,73998.5,0.01,-32.23,-33.03,0,*76
1508533590.81,59244,16.56,73998.5,0.05,-31.91,-32.85,0,*70
1508533592.02,59245,16.56,73996.8,0.05,-32.35,-33.09,0,*79
1508533593.26,59246,16.56,73996.5,0.07,-32.13,-32.85,0,*79
1508533594.48,59247,16.56,73996.0,0.05,-31.91,-32.69,0,*71
1508533595.72,59248,16.56,74000.5,0.05,-32.19,-33.09,0,*7A
1508533596.97,59249,16.56,73996.0,0.07,-32.51,-33.27,0,*79
1508533598.18,59250,16.56,73998.5,0.07,-32.51,-33.37,0,*70
1508533599.4,59251,16.56,73998.0,0.05,-32.35,-33.27,0,*70
1508533600.61,59252,16.56,73996.5,0.05,-32.39,-33.27,0,*7F
1508533601.85,59253,16.56,73994.0,0.07,-32.19,-33.03,0,*78
1508533603.07,59254,16.56,73996.8,0.05,-32.39,-33.31,0,*7E
1508533604.28,59255,16.56,73998.0,0.05,-32.51,-33.43,0,*74
1508533605.47,59256,16.56,73996.0,0.05,-32.51,-33.37,0,*74
1508533606.69,59257,16.56,73998.8,0.05,-32.57,-33.31,0,*75
1508533607.91,59258,16.56,73996.8,0.05,-32.51,-33.27,0,*7B
1508533609.12,59259,16.56,73998.5,0.01,-32.57,-33.31,0,*7F
1508533610.36,59260,16.56,74000.8,0.05,-32.63,-33.49,0,*79
1508533611.58,59261,16.56,74000.3,0.05,-31.61,-32.51,0,*71
1508533612.8,59262,16.56,73998.8,0.07,-31.79,-32.51,0,*79
1508533614.03,59263,16.56,73998.5,0.07,-32.01,-32.69,0,*7F
1508533615.24,59264,16.56,73998.5,0.07,-32.35,-33.21,0,*72
1508533616.47,59265,16.56,74002.5,0.07,-32.29,-33.21,0,*7E
1508533617.68,59266,16.56,74000.0,0.09,-32.29,-32.91,0,*79
1508533618.93,59267,16.56,73998.8,0.07,-31.95,-32.69,0,*75
1508533620.2,59268,16.56,73996.3,0.07,-31.85,-32.63,0,*71
1508533621.44,59269,16.56,74000.0,0.09,-31.85,-32.79,0,*75
1508533622.72,59270,16.56,74000.0,0.07,-31.95,-32.79,0,*72
1508533623.94,59271,16.56,74000.5,0.09,-32.01,-32.85,0,*70
1508533625.18,59272,16.56,74002.3,0.07,-32.01,-32.79,0,*7E
1508533626.43,59273,16.56,73996.8,0.09,-31.95,-32.85,0,*7C
1508533627.62,59274,16.56,73998.5,0.09,-32.01,-32.91,0,*70
1508533628.8,59275,16.56,73994.3,0.09,-32.35,-33.21,0,*7C
1508533630.06,59276,16.56,73998.8,0.07,-32.29,-33.09,0,*76
1508533631.28,59277,16.56,73998.5,0.07,-32.51,-33.37,0,*75
1508533632.52,59278,16.56,73996.0,0.09,-32.63,-33.43,0,*76
1508533633.76,59279,16.56,73998.0,0.09,-32.79,-33.61,0,*7C
1508533634.98,59280,16.56,73998.3,0.07,-32.51,-33.37,0,*7D
1508533636.2,59281,16.56,73998.5,0.07,-32.51,-33.37,0,*7C
1508533637.42,59282,16.56,73996.3,0.07,-32.69,-33.55,0,*70
1508533638.65,59283,16.56,74002.0,0.07,-32.35,-33.09,0,*71
1508533639.9,59284,16.56,73998.5,0.07,-32.19,-32.91,0,*78
1508533641.12,59285,16.56,73998.3,0.07,-32.01,-32.69,0,*77
1508533642.31,59286,16.56,74000.0,0.09,-32.13,-32.91,0,*7E
1508533643.5,59287,16.56,74002.8,0.09,-31.79,-32.69,0,*77
1508533644.72,59288,16.56,74004.5,0.09,-31.85,-32.69,0,*7B
1508533645.97,59289,16.56,74000.5,0.07,-31.95,-32.69,0,*75
1508533647.22,59290,16.56,74002.0,0.07,-32.01,-32.79,0,*72
1508533648.44,59291,16.56,74000.3,0.09,-32.01,-32.85,0,*7E
1508533649.66,59292,16.56,74000.3,0.09,-32.19,-32.91,0,*71
1508533650.87,59293,16.56,74002.3,0.11,-32.39,-33.15,0,*46
1508533652.08,59294,16.56,74000.5,0.09,-32.19,-33.03,0,*7D
1508533653.33,59295,16.56,73998.3,0.07,-32.51,-33.27,0,*78
1508533654.52,59296,16.56,73996.8,0.09,-32.51,-33.37,0,*74
1508533655.74,59297,16.56,73996.5,0.09,-32.69,-33.43,0,*7D
1508533656.96,59298,16.56,73996.0,0.09,-32.51,-33.27,0,*7B
1508533658.21,59299,16.56,74002.5,0.07,-32.69,-33.43,0,*7D
1508533659.45,59300,16.56,73998.8,0.09,-32.45,-33.27,0,*7E
1508533660.69,59301,16.56,73994.3,0.07,-32.51,-33.27,0,*74
1508533661.91,59302,16.56,73998.3,0.09,-32.51,-33.27,0,*79
1508533663.13,59303,16.56,73994.5,0.07,-32.69,-33.55,0,*78
1508533664.34,59304,16.56,73992.3,0.09,-32.79,-33.55,0,*70
1508533665.58,59305,16.56,73994.8,0.07,-32.79,-33.55,0,*7F
1508533666.86,59306,16.56,73990.0,0.07,-32.79,-33.43,0,*7B
1508533668.1,59307,16.56,73988.0,0.07,-32.63,-33.37,0,*72
1508533669.37,59308,16.56,73994.0,0.07,-32.29,-33.09,0,*7E
1508533670.63,59309,16.56,73988.3,0.07,-32.29,-33.09,0,*7F
1508533671.87,59310,16.56,73992.0,0.07,-32.29,-33.03,0,*7D
1508533673.11,59311,16.56,73992.8,0.07,-32.19,-32.91,0,*75
1508533674.32,59312,16.56,73998.0,0.07,-32.51,-33.21,0,*70
1508533675.59,59313,16.56,73998.0,0.07,-32.45,-33.09,0,*7E
1508533676.86,59314,16.56,73998.5,0.07,-32.19,-32.85,0,*75
1508533678.13,59315,16.56,73996.5,0.07,-31.95,-32.63,0,*7B
1508533679.35,59316,16.56,73998.0,0.07,-32.51,-33.21,0,*74
1508533680.58,59317,16.56,73992.3,0.07,-32.29,-33.03,0,*7A
1508533681.79,59318,16.56,73992.3,0.07,-32.35,-33.21,0,*78
1508533683.03,59319,16.56,73998.3,0.07,-32.35,-33.09,0,*73
1508533684.26,59320,16.56,73996.5,0.09,-32.29,-33.09,0,*7A
1508533685.5,59321,16.56,73992.5,0.07,-32.29,-32.91,0,*75
1508533686.74,59322,16.56,73996.8,0.07,-32.19,-32.91,0,*75
1508533687.95,59323,16.56,73998.0,0.09,-32.45,-33.21,0,*79
1508533689.19,59324,16.56,73994.5,0.07,-32.35,-33.09,0,*7D
1508533690.43,59325,16.56,73998.0,0.07,-32.35,-33.09,0,*7C
1508533691.64,59326,16.56,73998.5,0.07,-32.51,-33.21,0,*77
1508533692.86,59327,16.56,73998.0,0.07,-32.51,-33.37,0,*71
1508533694.11,59328,16.56,73998.5,0.07,-32.69,-33.43,0,*76
1508533695.33,59329,16.56,73996.8,0.07,-32.51,-33.37,0,*7F
1508533696.6,59330,16.56,73996.3,0.07,-32.63,-33.27,0,*77
1508533697.84,59331,16.56,73998.3,0.05,-32.85,-33.61,0,*7E
1508533699.05,59332,16.56,74000.5,0.05,-32.69,-33.61,0,*7F
1508533700.27,59333,16.5,73992.5,0.05,-32.69,-33.43,0,*7E